Location: ??
(35.3149°N, 139.6204°E)
Time: 11:06:58
(UTC+00:00)

Meteor 2-10 Rocket - Pass Details

Date: 03 August 2024
Orbit: 733 x 882 km, 81.2° (Epoch: 09 September)

Event Time Altitude Azimuth Distance (km) Brightness Sun altitude
Exits shadow 18:38:14 10° 191° (SSW) 2,339 5.6 -14.2°
Reaches altitude 10° 18:38:16 10° 191° (SSW) 2,329 5.6 -14.2°
Maximum altitude 18:43:29 79° 278° (W) 779 3.4 -13.4°
Drops below altitude 10° 18:48:35 10° 6° (N) 2,266 6.5 -12.5°
Sets 18:50:53 0° 7° (N) 3,182 7.3 -12.1°
